User: anonymous   Login
Location: Newark
(41.8083°N, 72.2500°W)
Time: 23:20:40
(UTC+00:00)
Language:

Tiros 1 - Orbit

View from above orbital plane
View from above orbital plane
View from above satellite
View from above satellite

Ground track
Ground track

The orbit data is extracted from the following two-line orbital elements,

1 00029U 60002B   22028.46002958  .00000047  00000-0  37849-4 0  9993
2 00029  48.3805  43.9206 0024558 237.7566 122.0966 14.74512532305609
Epoch (UTC): 28 January 2022 11:02:26
Eccentricity: 0.0024558
inclination: 48.3805°
perigee height: 629 km
apogee height: 664 km
right ascension of ascending node: 43.9206°
argument of perigee: 237.7566°
revolutions per day: 14.74512532
mean anomaly at epoch: 122.0966°
orbit number at epoch: 30560

The dashed part of the orbit path shows where the satellite is in the earth's shadow,  

DLR